Location: Jakuszowice
(50.2716°N, 20.5132°E)
Time: 01:03:45
(UTC+00:00)

Daily predictions for brighter satellites

Satellite Brightness Start Highest point End
(mag) Time Altitude Azimuth Time Altitude Azimuth Time Altitude Azimuth
ACS3 Solar Sail 4.5 00:18:42 10° ENE 00:19:37 11° ENE 00:19:37 11° ENE
USA 267 4.2 01:28:11 10° ENE 01:32:57 40° ESE 01:32:57 40° ESE
Cosmos 2278 Rocket 4.2 01:47:56 21° NNE 01:49:18 23° NE 01:53:44 10° E
H-2A R/B 4.3 01:46:21 10° NNE 01:47:35 17° NNE 01:47:35 17° NNE
Cosmos 2333 Rocket 3.6 01:57:29 32° NNE 01:57:29 32° NNE 02:00:29 10° NNE
COSMOS 2455 3.7 02:01:57 46° NE 02:01:57 46° NE 02:06:07 10° NE
ADEOS II 4.3 01:58:04 10° NNE 01:59:06 16° N 01:59:06 16° N
ACS3 Solar Sail 2.4 01:59:11 10° NNE 02:03:45 51° NE 02:03:45 51° NE
CENTAUR R/B 4.1 02:05:12 29° NNW 02:06:30 30° N 02:13:47 10° ENE
Resurs 1-4 Rocket 4.5 02:06:37 10° N 02:07:12 13° N 02:07:12 13° N
USA 234 3.4 02:05:58 10° ESE 02:11:32 66° SE 02:11:32 66° SE
Cosmos 2360 Rocket 3.1 02:17:23 43° NNE 02:17:23 43° NNE 02:21:09 10° NNE
Cosmos 2322 Rocket 3.2 02:17:43 40° NNE 02:17:43 40° NNE 02:21:19 10° NNE
SL-16 R/B 3.6 02:24:11 29° N 02:24:11 29° N 02:27:08 10° NNE
Cosmos 44 Rocket 4.2 02:26:24 49° ENE 02:26:24 49° ENE 02:30:45 10° ESE
Cosmos 1943 Rocket 3.5 02:24:45 25° N 02:27:04 35° NE 02:32:06 10° ESE
ARGOS 3.5 02:28:18 10° NNE 02:33:41 61° ESE 02:34:50 50° SSE
Okean 1-7 4.4 02:36:46 35° NE 02:36:46 35° NE 02:39:45 10° NNE
Cosmos 1140 Rocket 4.2 02:35:56 41° NNE 02:37:10 50° ENE 02:42:07 10° SE
ADEOS Rocket 3.1 02:32:21 10° NNE 02:38:45 71° WNW 02:38:45 71° WNW
CZ-2C R/B 2.9 02:36:18 10° NNE 02:41:15 61° ESE 02:42:20 49° SSE
NOSS 3-1 (C) 4.1 02:40:03 32° SSE 02:41:16 38° ESE 02:46:21 10° NE
Cosmos 2100 Rocket 4.3 02:40:31 10° N 02:46:39 64° ENE 02:52:44 10° SSE
SJ 16-02 4.2 02:52:08 10° NNE 02:54:11 13° NE 02:56:11 10° ENE
Cosmos 2219 Rocket 2.0 02:55:06 76° WNW 02:55:07 76° WNW 03:00:51 10° NNE
SL-24 R/B - RUBIN 2 3.8 02:58:33 81° SSW 02:58:50 88° ESE 03:03:47 10° NE
Cosmos 1707 Rocket 4.4 03:05:39 40° N 03:05:39 40° N 03:08:33 10° N
USA 59 Rocket 1.0 03:05:02 32° E 03:05:02 32° E 03:07:02 10° ENE
COSMOS 2428 3.4 02:59:23 10° S 03:04:51 53° ESE 03:10:23 10° NE
Cosmos 1459 Rocket 4.1 03:01:43 10° N 03:08:09 81° E 03:14:29 10° SSE
Cosmos 2322 3.9 03:08:00 18° SSW 03:12:19 69° ESE 03:17:58 10° NNE
IRS P6 4.5 03:07:09 10° NNE 03:12:30 73° WNW 03:14:08 45° SW
SL-08 RB Rocket 3.5 03:09:42 10° NNE 03:14:18 87° WNW 03:15:42 45° SSW
Meteor 2-21 4.5 03:09:18 10° S 03:15:23 79° E 03:21:28 10° NNE
CZ-2D R/B 4.3 03:13:57 10° NNW 03:14:23 11° NNW 03:14:23 11° NNW
Cosmos 1727 Rocket 3.8 03:11:07 10° SSW 03:17:18 77° W 03:23:34 10° N
USA 267 3.2 03:11:12 10° ENE 03:17:45 77° NNW 03:20:18 40° WSW
Cosmos 1725 Rocket 4.3 03:12:02 10° N 03:18:22 68° ENE 03:24:39 10° SSE
Cosmos 407 Rocket 4.0 03:14:38 14° NNW 03:18:57 58° ENE 03:23:58 10° SE
Cosmos 1023 Rocket 4.3 03:18:48 44° NW 03:20:22 73° WSW 03:25:23 10° SSE
COSMO-SKYMED 1 3.7 03:19:19 10° SE 03:23:10 40° ENE 03:27:03 10° N
Cosmos 2150 Rocket 4.2 03:23:19 46° WNW 03:23:19 46° WNW 03:28:22 10° NNE
SKYMED 2 4.2 03:19:21 10° SSE 03:23:35 56° ENE 03:27:52 10° N
NOSS 3-1 (A) 4.5 03:21:10 10° S 03:25:24 34° ESE 03:30:24 10° NE
Cosmos 2228 Rocket 3.0 03:26:01 61° WNW 03:26:01 61° WNW 03:30:14 10° N
Cosmos 1802 Rocket 4.0 03:19:43 10° N 03:26:10 84° E 03:32:28 10° S
Cosmos 1980 Rocket 4.4 03:27:56 11° NNW 03:28:26 11° NNW 03:29:48 10° N
H-2A R/B 3.6 03:26:16 10° N 03:28:05 18° NNW 03:28:05 18° NNW
Cosmos 1269 Rocket 4.0 03:29:01 37° NW 03:30:54 58° WSW 03:36:04 10° S
NOSS 2-1 (E) 3.3 03:32:54 42° S 03:33:45 60° SE 03:36:49 10° NE
Cosmos 2278 Rocket 2.1 03:29:48 18° NNW 03:34:10 89° ENE 03:39:50 10° SSE
Cosmos 2173 Rocket 3.9 03:31:22 10° NNW 03:37:22 61° W 03:43:20 10° S
Cosmos 2251 Rocket 4.4 03:32:13 10° NNW 03:37:27 50° ENE 03:42:38 10° SE
Cosmos 2333 Rocket 3.4 03:39:30 24° NW 03:39:45 24° NW 03:44:24 10° NNE
Cosmos 1703 Rocket 3.6 03:36:24 10° S 03:40:44 81° E 03:45:08 10° NNE
Cosmos 2237 Rocket 3.4 03:35:48 10° S 03:41:08 44° ESE 03:46:29 10° NE
ADEOS II 4.1 03:39:14 10° NNW 03:39:55 12° NNW 03:39:55 12° NNW
Cosmos 1328 3.4 03:38:34 10° SSW 03:42:12 83° W 03:45:53 10° N
Cosmos 1939 Rocket 2.7 03:42:39 10° N 03:46:28 57° WNW 03:48:48 21° SW
COSMOS 2455 3.7 03:45:06 28° WNW 03:46:35 31° NW 03:51:55 10° NNE
Cosmos 2292 Rocket 4.2 03:42:52 10° S 03:47:04 67° E 03:52:34 10° NNE
Lacrosse 5 rocket 2.0 03:46:58 28° NNW 03:47:07 28° N 03:50:07 10° NE
ACS3 Solar Sail 2.6 03:42:51 10° N 03:47:43 26° WNW 03:47:53 26° WNW
Meteor 1-24 Rocket 3.6 03:44:51 10° SSW 03:50:38 83° W 03:56:16 10° N
Cosmos 2369 Rocket 4.0 03:46:45 10° NNW 03:51:31 27° NE 03:56:18 10° E
BlueWalker 3 2.8 03:53:51 29° SW 03:54:03 29° SW 03:57:13 10° SSE
USA 234 4.1 03:50:28 10° S 03:56:09 31° SW 03:58:53 23° W
CZ-4 R/B 3.9 03:51:57 10° NNE 03:56:55 86° ESE 04:01:44 10° SSW
Cosmos 2123 Rocket 3.9 03:52:39 10° SSW 03:58:51 70° WNW 04:05:04 10° N
CENTAUR R/B 4.0 03:52:18 13° NW 03:59:05 46° NNE 04:07:46 10° ESE
USA 276 4.0 04:00:15 15° SSW 04:00:15 15° SSW 04:01:27 10° S
Helios 1A Rocket 2.3 03:56:48 10° S 04:00:10 61° WSW 04:02:41 17° NNW
Cosmos 2360 Rocket 3.4 03:59:09 22° NW 04:00:13 23° NW 04:04:40 10° NNE
Cosmos 1782 Rocket 3.5 03:56:06 10° N 04:00:32 86° W 04:04:53 10° S
Cosmos 2322 Rocket 3.5 03:59:31 20° NW 04:00:32 21° NW 04:04:50 10° NNE
Meteor 2-5 Rocket 3.7 03:55:36 10° SSW 04:01:31 77° WNW 04:07:23 10° N
Gbstr 26 Del rocket 3.7 03:59:16 20° WSW 04:02:46 75° SSE 04:08:56 10° ENE
NOAA 12 4.1 03:58:54 10° NNE 04:04:16 88° ESE 04:09:36 10° SSW
SJ-11-01 4.2 03:59:53 10° N 04:04:31 62° WNW 04:09:08 10° SSW
Cosmos 44 Rocket 4.2 04:05:02 25° WNW 04:06:57 32° WSW 04:11:30 10° S
SL-16 R/B 3.9 04:06:02 14° NW 04:07:11 15° NNW 04:10:24 10° N
Cosmos 2016 Rocket 4.0 04:02:22 10° NNW 04:08:39 61° W 04:14:52 10° S
Cosmos 374 Rocket 4.3 04:05:55 12° SW 04:09:25 89° SE 04:13:48 10° NE
Cosmos 1943 Rocket 2.3 04:06:17 13° NW 04:10:57 49° WSW 04:16:13 10° S
H-2A R/B 4.3 04:08:08 10° N 04:11:15 24° WNW 04:11:15 24° WNW
Okean 1-7 4.1 04:13:10 22° WNW 04:13:10 22° WNW 04:16:19 10° NNW
ARGOS 4.1 04:09:08 10° N 04:13:32 26° WNW 04:16:17 17° W
Cosmos 1908 Rocket 4.2 04:12:14 10° NNW 04:16:13 33° W 04:20:09 10° SSW
NOSS 2-1 (C) 3.0 04:14:58 25° W 04:16:29 44° NW 04:19:23 10° NNE
Meteor 2-21 Rocket 4.5 04:10:44 10° SSW 04:16:44 55° WNW 04:22:43 10° N
Cosmos 1140 Rocket 4.3 04:15:56 18° WNW 04:18:35 27° W 04:22:49 10° SSW
CZ-2C R/B 3.5 04:15:01 10° N 04:18:56 24° WNW 04:21:33 16° W
NOSS 2-1 (D) 3.2 04:19:05 24° W 04:20:33 38° NW 04:23:23 10° NNE
Cosmos 1300 Rocket 3.7 04:16:54 10° NNW 04:21:06 48° W 04:25:14 10° SSW
Aureole 3 Rocket 3.6 04:20:31 10° N 04:24:38 70° E 04:30:20 10° SSE
Cosmos 1812 3.4 04:21:52 10° N 04:24:40 40° ENE 04:27:27 10° SSE
Cosmos 2061 Rocket 4.0 04:22:34 10° NNW 04:28:43 63° W 04:34:47 10° S
Iridium 4 Rocket 3.6 04:27:17 10° NNW 04:31:15 34° W 04:35:02 10° SSW
NOSS 3-1 (C) 3.4 04:27:25 12° WSW 04:31:47 48° NW 04:37:41 10° NE
SJ 16-02 1.4 04:28:46 10° NNW 04:33:06 77° ENE 04:37:23 10° SSE
Orbus 7S? 3.5 04:31:59 10° SW 04:37:19 73° SE 04:40:14 10° ENE
Cosmos 1190 Rocket 4.0 04:33:37 10° NNW 04:38:53 69° WSW 04:44:04 10° SSE
IRS-1D 3.8 04:34:34 10° N 04:39:14 40° WNW 04:43:49 10° SW
SL-16 R/B 3.9 04:34:11 10° S 04:39:23 38° ESE 04:44:36 10° NE
Cosmos 676 Rocket 4.1 04:34:34 10° NNW 04:39:52 80° ENE 04:45:05 10° SSE
Cosmos 2219 Rocket 3.5 04:36:50 13° WNW 04:40:03 20° NW 04:44:14 10° N
Cosmos 1378 Rocket 4.4 04:38:55 10° S 04:43:04 53° E 04:47:15 10° NNE
NOSS 0 Rocket 4.1 04:39:42 10° SW 04:45:43 54° NW 04:51:47 10° NNE
Cosmos 2056 Rocket 4.1 04:40:28 10° S 04:45:48 66° ESE 04:51:11 10° NNE
Cosmos 1869 3.0 04:44:08 10° NNW 04:47:35 56° W 04:51:00 10° S
COSMOS 2428 3.4 04:44:10 10° WSW 04:49:20 34° NW 04:54:32 10° NNE
Okean 2 Rocket 4.0 04:47:19 10° N 04:51:36 50° ENE 04:55:51 10° SSE
Cosmos 371 Rocket 3.3 04:46:57 10° NNW 04:51:49 81° WSW 04:56:39 10° SSE
USA 59 Rocket 0.6 04:50:47 11° W 04:53:01 20° NNW 04:55:21 10° NNE
Cosmos 1954 Rocket 4.1 04:51:51 10° NNW 04:56:59 59° WSW 05:02:02 10° S
COSMO-SKYMED 1 3.6 04:55:20 10° SSW 04:58:39 23° W 05:02:00 10° NW
Thor Agena Rocket 3.8 04:53:58 10° NNE 04:59:15 79° ESE 05:04:26 10° SSW
Meteor 1-21 Rocket 4.4 04:54:25 10° S 05:00:13 84° ESE 05:05:57 10° NNE
USA 267 3.7 04:54:08 10° ENE 05:00:25 51° N 05:06:41 10° WNW
Cosmos 1484 Rocket 2.9 04:58:39 10° N 05:02:02 42° WNW 05:05:24 10° SW
SL-08 R/B 4.5 04:59:45 10° SE 05:04:07 43° ENE 05:08:28 10° N
Cosmos 1371 Rocket 4.1 04:58:58 10° SSW 05:04:15 87° ESE 05:09:37 10° NNE
Aureole 3 4.4 04:58:19 10° SSW 05:04:37 61° WNW 05:10:05 10° N
Cosmos 1980 4.0 05:03:27 10° SW 05:08:53 46° NW 05:14:21 10° NNE
